EN

Hourly Weather Acajete

Today, 30 November, Monday

Time Temperature Precipitation Wind Pressure Humidity
00:00 +12°C° 0.1 mm 2 mps 567 mmHg 92%
01:00 +12°C° 0.1 mm 2 mps 567 mmHg 92%
02:00 +11°C° 0.1 mm 3 mps 567 mmHg 93%
03:00 +10°C° 0.1 mm 3 mps 567 mmHg 92%
04:00 +10°C° 0.1 mm 3 mps 567 mmHg 91%
05:00 +10°C° 0.1 mm 3 mps 567 mmHg 91%
06:00 +10°C° 0 mm 3 mps 567 mmHg 89%
07:00 +9°C° 0 mm 3 mps 568 mmHg 88%
08:00 +9°C° 0 mm 3 mps 568 mmHg 86%
09:00 +10°C° 0 mm 3 mps 568 mmHg 84%
10:00 +10°C° 0 mm 3 mps 568 mmHg 82%
11:00 +10°C° 0 mm 3 mps 568 mmHg 80%
12:00 +10°C° 0 mm 3 mps 568 mmHg 80%
13:00 +10°C° 0 mm 3 mps 567 mmHg 79%
14:00 +10°C° 0 mm 3 mps 567 mmHg 79%
15:00 +9°C° 0 mm 3 mps 566 mmHg 82%
16:00 +8°C° 0 mm 3 mps 566 mmHg 86%
17:00 +8°C° 0 mm 3 mps 566 mmHg 89%
18:00 +7°C° 0 mm 2 mps 566 mmHg 90%
19:00 +7°C° 0 mm 2 mps 567 mmHg 90%
20:00 +7°C° 0 mm 2 mps 567 mmHg 91%
21:00 +7°C° 0 mm 2 mps 567 mmHg 90%
22:00 +9°C° 0 mm 1 mps 567 mmHg 90%
23:00 +9°C° 0 mm 1 mps 567 mmHg 89%

Tomorrow, 1 December, Tuesday

Time Temperature Precipitation Wind Pressure Humidity
00:00 +9°C° 0 mm 1 mps 567 mmHg 89%
01:00 +9°C° 0 mm 1 mps 567 mmHg 89%
02:00 +9°C° 0 mm 1 mps 566 mmHg 89%
03:00 +9°C° 0 mm 1 mps 566 mmHg 91%
04:00 +8°C° 0 mm 1 mps 566 mmHg 92%
05:00 +8°C° 0 mm 1 mps 566 mmHg 94%
06:00 +9°C° 0 mm 1 mps 567 mmHg 88%
07:00 +11°C° 0 mm 1 mps 568 mmHg 83%
08:00 +12°C° 0 mm 2 mps 569 mmHg 77%
09:00 +14°C° 0 mm 2 mps 569 mmHg 69%
10:00 +16°C° 0 mm 2 mps 570 mmHg 61%
11:00 +18°C° 0 mm 3 mps 570 mmHg 53%
12:00 +18°C° 0 mm 3 mps 569 mmHg 53%
13:00 +18°C° 0 mm 4 mps 569 mmHg 53%
14:00 +18°C° 0 mm 4 mps 568 mmHg 53%
15:00 +15°C° 0 mm 4 mps 567 mmHg 59%
16:00 +14°C° 0 mm 3 mps 566 mmHg 65%
17:00 +12°C° 0 mm 3 mps 565 mmHg 72%
18:00 +13°C° 0 mm 2 mps 565 mmHg 75%
19:00 +12°C° 0 mm 2 mps 565 mmHg 78%
20:00 +10°C° 0 mm 2 mps 565 mmHg 82%
21:00 +10°C° 0 mm 2 mps 565 mmHg 83%
22:00 +9°C° 0 mm 2 mps 565 mmHg 85%
23:00 +9°C° 0 mm 2 mps 564 mmHg 87%

Day after tomorrow, 2 December, Wednesday

Time Temperature Precipitation Wind Pressure Humidity
00:00 +9°C° 0 mm 2 mps 564 mmHg 89%
01:00 +8°C° 0 mm 2 mps 563 mmHg 90%
02:00 +8°C° 0 mm 2 mps 563 mmHg 91%
03:00 +8°C° 0 mm 2 mps 563 mmHg 92%
04:00 +8°C° 0 mm 2 mps 563 mmHg 92%
05:00 +9°C° 0 mm 1 mps 563 mmHg 92%
06:00 +10°C° 0 mm 1 mps 564 mmHg 85%
07:00 +12°C° 0 mm 1 mps 566 mmHg 77%
08:00 +13°C° 0 mm 1 mps 567 mmHg 70%
09:00 +15°C° 0 mm 1 mps 567 mmHg 61%
10:00 +18°C° 0 mm 1 mps 568 mmHg 52%
11:00 +19°C° 0 mm 1 mps 569 mmHg 43%
12:00 +19°C° 0.1 mm 1 mps 568 mmHg 44%
13:00 +18°C° 0.1 mm 2 mps 567 mmHg 45%
14:00 +18°C° 0.1 mm 2 mps 567 mmHg 46%
15:00 +16°C° 0.2 mm 2 mps 566 mmHg 55%
16:00 +15°C° 0.2 mm 2 mps 566 mmHg 65%
17:00 +13°C° 0.2 mm 1 mps 565 mmHg 74%
18:00 +12°C° 0.1 mm 1 mps 565 mmHg 78%
19:00 +11°C° 0.1 mm 1 mps 565 mmHg 82%
20:00 +10°C° 0.1 mm 1 mps 565 mmHg 85%
21:00 +10°C° 0 mm 1 mps 565 mmHg 86%
22:00 +10°C° 0 mm 1 mps 565 mmHg 87%
23:00 +9°C° 0 mm 1 mps 565 mmHg 87%

3 December, Thursday

Time Temperature Precipitation Wind Pressure Humidity
00:00 +9°C° 0 mm 1 mps 565 mmHg 88%
01:00 +8°C° 0 mm 1 mps 564 mmHg 89%
02:00 +7°C° 0 mm 0 mps 564 mmHg 90%
03:00 +8°C° 0 mm 1 mps 564 mmHg 90%
04:00 +8°C° 0 mm 1 mps 564 mmHg 90%
05:00 +7°C° 0 mm 1 mps 564 mmHg 91%
06:00 +9°C° 0 mm 1 mps 565 mmHg 85%
07:00 +10°C° 0 mm 1 mps 567 mmHg 79%
08:00 +12°C° 0 mm 1 mps 568 mmHg 73%
09:00 +13°C° 0 mm 2 mps 568 mmHg 67%
10:00 +15°C° 0 mm 2 mps 569 mmHg 61%
11:00 +16°C° 0 mm 2 mps 569 mmHg 55%
12:00 +16°C° 0 mm 2 mps 568 mmHg 57%
13:00 +16°C° 0 mm 2 mps 568 mmHg 59%
14:00 +15°C° 0 mm 2 mps 567 mmHg 62%
15:00 +14°C° 0.1 mm 2 mps 567 mmHg 67%
16:00 +13°C° 0.1 mm 2 mps 566 mmHg 73%
17:00 +12°C° 0.1 mm 2 mps 566 mmHg 79%
18:00 +10°C° 0 mm 2 mps 566 mmHg 83%
19:00 +9°C° 0 mm 2 mps 566 mmHg 87%
20:00 +10°C° 0 mm 1 mps 567 mmHg 90%
21:00 +10°C° 0 mm 1 mps 566 mmHg 92%
22:00 +9°C° 0 mm 1 mps 566 mmHg 93%
23:00 +9°C° 0 mm 1 mps 566 mmHg 94%

4 December, Friday

Time Temperature Precipitation Wind Pressure Humidity
00:00 +9°C° 0 mm 1 mps 566 mmHg 94%
01:00 +9°C° 0 mm 1 mps 566 mmHg 94%
02:00 +9°C° 0 mm 1 mps 566 mmHg 94%
03:00 +9°C° 0 mm 1 mps 566 mmHg 93%
04:00 +9°C° 0 mm 1 mps 566 mmHg 93%
05:00 +9°C° 0 mm 1 mps 566 mmHg 93%
06:00 +9°C° 0 mm 1 mps 566 mmHg 90%
07:00 +10°C° 0 mm 1 mps 567 mmHg 87%
08:00 +10°C° 0 mm 1 mps 568 mmHg 84%
09:00 +10°C° 0 mm 2 mps 568 mmHg 79%
10:00 +12°C° 0 mm 2 mps 568 mmHg 74%
11:00 +13°C° 0 mm 2 mps 568 mmHg 70%
12:00 +14°C° 0 mm 2 mps 568 mmHg 68%
13:00 +13°C° 0 mm 3 mps 568 mmHg 65%
14:00 +14°C° 0 mm 3 mps 567 mmHg 63%
15:00 +12°C° 0 mm 3 mps 567 mmHg 70%
16:00 +11°C° 0 mm 3 mps 567 mmHg 77%
17:00 +10°C° 0 mm 3 mps 566 mmHg 83%
18:00 +9°C° 0 mm 3 mps 567 mmHg 86%
19:00 +9°C° 0 mm 2 mps 567 mmHg 88%
20:00 +8°C° 0 mm 2 mps 567 mmHg 91%
21:00 +8°C° 0 mm 2 mps 567 mmHg 91%
22:00 +8°C° 0 mm 2 mps 567 mmHg 91%
23:00 +8°C° 0 mm 2 mps 567 mmHg 91%

5 December, Saturday

Time Temperature Precipitation Wind Pressure Humidity
00:00 +8°C° 0 mm 2 mps 567 mmHg 91%
01:00 +9°C° 0 mm 1 mps 567 mmHg 92%
02:00 +9°C° 0 mm 1 mps 567 mmHg 92%
03:00 +8°C° 0 mm 1 mps 567 mmHg 92%
04:00 +8°C° 0 mm 1 mps 566 mmHg 92%
05:00 +8°C° 0 mm 1 mps 566 mmHg 92%
06:00 +9°C° 0 mm 1 mps 567 mmHg 88%
07:00 +9°C° 0 mm 1 mps 568 mmHg 83%
08:00 +10°C° 0 mm 1 mps 568 mmHg 79%
09:00 +12°C° 0 mm 1 mps 569 mmHg 70%
10:00 +14°C° 0 mm 1 mps 570 mmHg 61%
11:00 +16°C° 0 mm 1 mps 571 mmHg 53%
12:00 +16°C° 0 mm 2 mps 570 mmHg 51%
13:00 +17°C° 0 mm 2 mps 570 mmHg 50%
14:00 +17°C° 0 mm 2 mps 569 mmHg 48%
15:00 +16°C° 0 mm 2 mps 569 mmHg 57%
16:00 +14°C° 0 mm 2 mps 568 mmHg 65%
17:00 +12°C° 0 mm 2 mps 567 mmHg 73%
18:00 +12°C° 0 mm 1 mps 567 mmHg 78%
19:00 +11°C° 0 mm 1 mps 567 mmHg 83%
20:00 +10°C° 0 mm 1 mps 567 mmHg 88%
21:00 +10°C° 0 mm 1 mps 567 mmHg 89%
22:00 +10°C° 0 mm 1 mps 567 mmHg 91%
23:00 +9°C° 0 mm 1 mps 567 mmHg 93%
Show more